GW1409 Weather Reports


time (UTC)temp
C
wind
direction
speed
KPH
gust
KPH
rain 1hr
cm
rain 24hr
cm
rain mn
cm
humidity
%
barometer
mb
20260506103236 14 315 0.0 4.8 0.00 0.00 0.00 61 1007.7
20260506102727 14 329 0.0 1.6 0.00 0.00 0.00 61 1007.7
20260506102226 14 95 0.0 8.0 0.00 0.00 0.00 61 1007.8
20260506101729 13 315 0.0 8.0 0.00 0.00 0.00 60 1007.9
20260506101214 13 344 0.0 1.6 0.00 0.00 0.00 61 1007.8
20260506100708 13 340 0.0 3.2 0.00 0.00 0.00 61 1007.9
20260506100209 13 317 0.0 3.2 0.00 0.00 0.00 61 1007.7
20260506095654 13 9 0.0 3.2 0.00 0.00 0.00 62 1007.8
20260506095147 13 250 0.0 4.8 0.00 0.00 0.00 62 1007.7
20260506094643 13 323 0.0 4.8 0.00 0.00 0.00 62 1007.7
20260506094145 13 55 0.0 1.6 0.00 0.00 0.00 61 1007.6
20260506094123 13 328 0.0 1.6 0.00 0.00 0.00 61 1007.6
20260506093143 13 5 0.0 1.6 0.00 0.00 0.00 60 1007.6
20260506092640 13 355 0.0 1.6 0.00 0.00 0.00 58 1007.5
20260506092139 13 241 0.0 6.4 0.00 0.00 0.00 55 1007.6
20260506091635 13 267 0.0 6.4 0.00 0.00 0.00 59 1007.6
20260506091131 13 257 0.0 3.2 0.00 0.00 0.00 59 1007.7
20260506090850 13 355 0.0 3.2 0.00 0.00 0.00 60 1007.6
20260506090132 13 209 0.0 1.6 0.00 0.00 0.00 59 1007.6
20260506085627 13 5 0.0 1.6 0.00 0.00 0.00 57 1007.5
20260506085126 13 231 0.0 1.6 0.00 0.00 0.00 51 1007.5
20260506084603 12 338 0.0 4.8 0.00 0.00 0.00 51 1007.4
20260506084059 12 308 0.0 4.8 0.00 0.00 0.00 52 1007.5
20260506083557 12 339 0.0 1.6 0.00 0.00 0.00 51 1007.5
20260506083050 12 5 0.0 3.2 0.00 0.00 0.00 48 1007.5
20260506082540 12 336 0.0 4.8 0.00 0.00 0.00 43 1007.4
20260506082307 12 201 0.0 4.8 0.00 0.00 0.00 42 1007.4
20260506081536 12 209 0.0 1.6 0.00 0.00 0.00 44 1007.4
20260506081251 12 248 0.0 3.2 0.00 0.00 0.00 46 1007.5
20260506080536 12 266 0.0 3.2 0.00 0.00 0.00 43 1007.4
20260506073032 12 284 0.0 1.6 0.00 0.00 0.00 28 1007.2
20260506072531 12 240 0.0 9.7 0.00 0.00 0.00 28 1007.2
20260506072027 12 339 0.0 9.7 0.00 0.00 0.00 25 1007.1
20260506071520 12 213 0.0 3.2 0.00 0.00 0.00 24 1007.1
20260506071008 11 300 0.0 4.8 0.00 0.00 0.00 25 1007.2
20260506070507 11 288 0.0 4.8 0.00 0.00 0.00 28 1007.2
20260506062436 11 336 0.0 1.6 0.00 0.00 0.00 4 1007.1
20260506061937 11 191 0.0 3.2 0.00 0.00 0.00 4 1007.0
20260506061701 11 228 0.0 4.8 0.00 0.00 0.00 2 1007.0
20260506060937 11 9 0.0 4.8 0.00 0.00 0.00 1 1007.0
20260506060414 10 9 0.0 0.0 0.00 0.00 0.00 1 1006.9
20260506051304 10 345 0.0 1.6 0.00 0.00 0.00 13 1006.9
20260506050804 10 0 0.0 1.6 0.00 0.00 0.00 15 1006.9
20260506050242 10 338 0.0 4.8 0.00 0.00 0.00 16 1007.0
20260506044651 10 338 0.0 4.8 0.00 0.00 0.00 21 1007.0
20260506044152 10 338 0.0 4.8 0.00 0.00 0.00 21 1007.0
20260506043634 10 72 0.0 3.2 0.00 0.00 0.00 22 1007.1
20260506043126 10 355 0.0 1.6 0.00 0.00 0.00 22 1007.0
20260506042620 10 355 0.0 3.2 0.00 0.00 0.00 23 1007.1
20260506042112 10 22 0.0 3.2 0.00 0.00 0.00 22 1007.0
20260506041604 10 333 0.0 1.6 0.00 0.00 0.00 21 1007.0
20260506041046 10 57 0.0 1.6 0.00 0.00 0.00 21 1007.1
20260506040547 10 89 0.0 1.6 0.00 0.00 0.00 22 1007.2
20260506040048 10 17 0.0 0.0 0.00 0.00 0.00 23 1007.1
20260506035532 10 161 0.0 1.6 0.00 0.00 0.00 23 1007.1
20260506035025 10 309 0.0 1.6 0.00 0.00 0.00 25 1007.1
20260506034741 10 59 0.0 0.0 0.00 0.00 0.00 25 1007.1
20260506034507 10 5 0.0 4.8 0.00 0.00 0.00 25 1007.1
20260506033500 10 311 0.0 4.8 0.00 0.00 0.00 26 1007.1
20260506032952 10 212 0.0 1.6 0.00 0.00 0.00 27 1007.2
20260506032700 10 331 0.0 1.6 0.00 0.00 0.00 26 1007.2
20260506032158 10 204 0.0 0.0 0.00 0.00 0.00 25 1007.2
20260506031411 10 223 0.0 0.0 0.00 0.00 0.00 26 1007.2
20260506031128 10 119 0.0 0.0 0.00 0.00 0.00 27 1007.2
20260506030411 10 153 0.0 3.2 0.00 0.00 0.00 27 1007.3
20260506030402 10 164 0.0 3.2 0.00 0.00 0.00 27 1007.4
20260506025340 10 355 0.0 4.8 0.00 0.00 0.00 27 1007.4
20260506024841 10 355 0.0 4.8 0.00 0.00 0.00 28 1007.4
20260506024336 10 329 0.0 3.2 0.00 0.00 0.00 29 1007.4
20260506023828 10 75 0.0 1.6 0.00 0.00 0.00 30 1007.4
20260506023319 10 336 0.0 0.0 0.00 0.00 0.00 30 1007.4
20260506022821 10 146 0.0 0.0 0.00 0.00 0.00 31 1007.4
20260506022306 10 5 0.0 1.6 0.00 0.00 0.00 32 1007.4
20260506021730 10 355 0.0 1.6 0.00 0.00 0.00 33 1007.4
20260506021224 10 343 0.0 0.0 0.00 0.00 0.00 34 1007.4
20260506021149 10 349 0.0 0.0 0.00 0.00 0.00 34 1007.4
20260506020145 10 355 0.0 1.6 0.00 0.00 0.00 32 1007.5
20260506015906 10 9 0.0 1.6 0.00 0.00 0.00 31 1007.5
20260506015120 10 313 0.0 1.6 0.00 0.00 0.00 30 1007.5
20260506014833 10 58 0.0 3.2 0.00 0.00 0.00 30 1007.5
20260506014108 10 290 0.0 9.7 0.00 0.00 0.00 30 1007.5
20260506013834 10 311 0.0 9.7 0.00 0.00 0.00 30 1007.5
20260506013108 10 261 0.0 6.4 0.00 0.00 0.00 29 1007.6
20260506012606 10 340 0.0 1.6 0.00 0.00 0.00 27 1007.6
20260506012042 10 316 0.0 1.6 0.00 0.00 0.00 26 1007.6
20260506011543 10 350 0.0 8.0 0.00 0.00 0.00 26 1007.6
20260506011035 10 40 0.0 8.0 0.00 0.00 0.00 27 1007.6
20260506010537 10 5 0.0 8.0 0.00 0.00 0.00 26 1007.7
20260506010028 10 12 0.0 8.0 0.00 0.00 0.00 27 1007.7
20260506005739 10 340 0.0 4.8 0.00 0.00 0.00 27 1007.8
20260506005026 10 104 0.0 3.2 0.00 0.00 0.00 27 1007.9
20260506004523 10 348 0.0 0.0 0.00 0.00 0.00 28 1008.0
20260506004242 10 355 0.0 0.0 0.00 0.00 0.00 28 1008.1
20260506003440 10 355 0.0 0.0 0.00 0.00 0.00 29 1008.0
20260506002938 10 328 0.0 1.6 0.00 0.00 0.00 29 1008.1
20260506002432 10 5 0.0 8.0 0.00 0.00 0.00 30 1008.2
20260506001915 10 328 0.0 8.0 0.00 0.00 0.00 30 1008.2
20260506001634 10 38 0.0 0.0 0.00 0.00 0.00 30 1008.2
20260506001140 10 43 0.0 0.0 0.00 0.00 0.00 30 1008.3
20260506000403 10 116 0.0 1.6 0.00 0.00 0.00 28 1008.3
20260505235903 10 45 0.0 1.6 0.00 0.00 0.00 26 1008.4
20260505235403 10 92 0.0 1.6 0.00 0.00 0.00 23 1008.4
20260505234855 10 11 0.0 4.8 0.00 0.00 0.00 23 1008.4
20260505234612 10 355 0.0 6.4 0.00 0.00 0.00 23 1008.3
20260505234117 10 218 0.0 6.4 0.00 0.00 0.00 22 1008.4
20260505233353 10 5 0.0 4.8 0.00 0.00 0.00 22 1008.5
20260505232852 10 18 0.0 3.2 0.00 0.00 0.00 23 1008.6
20260505232343 10 14 0.0 1.6 0.00 0.00 0.00 26 1008.6
20260505231844 10 346 0.0 0.0 0.00 0.00 0.00 27 1008.7
20260505231335 10 9 0.0 12.9 0.00 0.00 0.00 30 1008.7
20260505230836 10 336 0.0 12.9 0.00 0.00 0.00 32 1008.7
20260505230320 10 348 0.0 3.2 0.00 0.00 0.00 35 1008.7
20260505225821 10 9 0.0 1.6 0.00 0.00 0.00 36 1008.7
20260505225312 10 319 0.0 3.2 0.00 0.00 0.00 36 1008.7
20260505224812 10 338 0.0 3.2 0.00 0.00 0.00 35 1008.7
20260505224259 10 321 0.0 3.2 0.00 0.00 0.00 35 1008.7
20260505224021 10 13 0.0 3.2 0.00 0.00 0.00 36 1008.7
20260505223246 10 322 0.0 3.2 0.00 0.00 0.00 37 1008.7
20260505222749 10 284 0.0 1.6 0.00 0.00 0.00 38 1008.8
20260505222248 10 355 0.0 1.6 0.00 0.00 0.00 39 1008.9
20260505221725 10 76 0.0 1.6 0.00 0.00 0.00 41 1008.9
20260505221219 10 13 0.0 0.0 0.00 0.00 0.00 42 1008.9
20260505220940 10 0 0.0 0.0 0.00 0.00 0.00 43 1009.1
20260505220436 10 98 0.0 1.6 0.00 0.00 0.00 44 1009.0
20260505215933 10 13 0.0 4.8 0.00 0.00 0.00 46 1009.0
20260505215217 10 22 0.0 4.8 0.00 0.00 0.00 48 1009.0
20260505214659 10 339 0.0 3.2 0.00 0.00 0.00 49 1009.1
20260505214151 10 5 0.0 3.2 0.00 0.00 0.00 50 1009.2
20260505213906 10 239 0.0 0.0 0.00 0.00 0.00 51 1009.2
20260505213413 10 269 0.0 1.6 0.00 0.00 0.00 52 1009.2
20260505212639 10 14 0.0 0.0 0.00 0.00 0.00 53 1009.2
20260505212134 10 117 0.0 1.6 0.00 0.00 0.00 53 1009.2
20260505211636 10 31 0.0 1.6 0.00 0.00 0.00 54 1009.2
20260505211136 10 21 0.0 3.2 0.00 0.00 0.00 56 1009.2
20260505210637 10 5 0.0 3.2 0.00 0.00 0.00 57 1009.2
20260505210112 10 228 0.0 1.6 0.00 0.00 0.00 56 1009.2
20260505205611 10 347 0.0 1.6 0.00 0.00 0.00 55 1009.3
20260505205114 10 5 0.0 1.6 0.00 0.00 0.00 56 1009.4
20260505204559 10 32 0.0 1.6 0.00 0.00 0.00 56 1009.4
20260505204053 10 9 0.0 1.6 0.00 0.00 0.00 56 1009.3
20260505203550 10 169 0.0 1.6 0.00 0.00 0.00 57 1009.4
20260505203032 10 288 0.0 3.2 0.00 0.00 0.00 58 1009.4
20260505202533 10 332 0.0 4.8 0.00 0.00 0.00 59 1009.4
20260505202025 10 13 0.0 4.8 0.00 0.00 0.00 59 1009.3
20260505201504 10 30 0.0 3.2 0.00 0.00 0.00 60 1009.3
20260505201004 10 355 0.0 1.6 0.00 0.00 0.00 60 1009.3
20260505200710 10 302 0.0 1.6 0.00 0.00 0.00 60 1009.3
20260505195948 10 311 0.0 1.6 0.00 0.00 0.00 59 1009.2
20260505195710 10 340 0.0 1.6 0.00 0.00 0.00 59 1009.2
20260505194940 10 0 0.0 0.0 0.00 0.00 0.00 59 1009.2
20260505194655 10 163 0.0 3.2 0.00 0.00 0.00 59 1009.1
20260505193847 10 5 0.0 3.2 0.00 0.00 0.00 60 1009.0
20260505193341 10 165 0.0 1.6 0.00 0.00 0.00 59 1009.0
20260505192824 10 135 0.0 1.6 0.00 0.00 0.00 59 1008.9
20260505192320 11 0 0.0 0.0 0.00 0.00 0.00 59 1008.9
20260505191820 11 225 0.0 0.0 0.00 0.00 0.00 60 1008.9
20260505191315 11 139 0.0 1.6 0.00 0.00 0.00 60 1008.8
20260505190809 11 324 0.0 1.6 0.00 0.00 0.00 60 1008.9
20260505190308 11 355 0.0 1.6 0.00 0.00 0.00 59 1008.8
20260505185954 11 0 0.0 1.6 0.00 0.00 0.00 59 1008.6
20260505185840 11 248 0.0 1.6 0.00 0.00 0.00 59 1008.8
20260505184748 11 350 0.0 6.4 0.00 0.00 0.00 58 1008.6
20260505184248 11 171 0.0 6.4 0.00 0.00 0.00 59 1008.7
20260505183747 11 15 0.0 4.8 0.00 0.00 0.00 59 1008.6
20260505183250 11 178 0.0 4.8 0.00 0.00 0.00 59 1008.7
20260505183017 11 332 0.0 1.6 0.00 0.00 0.00 59 1008.7
20260505182249 11 164 0.0 1.6 0.00 0.00 0.00 59 1008.6
20260505181749 12 275 0.0 3.2 0.00 0.00 0.00 59 1008.6
20260505181248 12 309 0.0 4.8 0.00 0.00 0.00 60 1008.6
20260505180747 12 308 0.0 8.0 0.00 0.00 0.00 60 1008.7
20260505180248 12 348 0.0 8.0 0.00 0.00 0.00 61 1008.7
20260505175743 12 162 0.0 1.6 0.00 0.00 0.00 61 1008.7
20260505175456 12 5 0.0 3.2 0.00 0.00 0.00 60 1008.8
20260505174727 12 30 0.0 3.2 0.00 0.00 0.00 60 1008.9
20260505174227 12 134 0.0 3.2 0.00 0.00 0.00 60 1008.7
20260505173720 12 239 0.0 3.2 0.00 0.00 0.00 61 1008.8
20260505173216 12 17 0.0 9.7 0.00 0.00 0.00 61 1008.7
20260505172709 12 339 0.0 9.7 0.00 0.00 0.00 61 1008.7
20260505172208 13 10 0.0 6.4 0.00 0.00 0.00 60 1008.7
20260505171707 13 0 0.0 6.4 0.00 0.00 0.00 60 1008.8
20260505171207 13 188 0.0 1.6 0.00 0.00 0.00 60 1008.7
20260505170704 13 331 0.0 4.8 0.00 0.00 0.00 60 1008.7
20260505170139 13 96 0.0 4.8 0.00 0.00 0.00 60 1008.7
20260505165640 13 307 0.0 3.2 0.00 0.00 0.00 62 1008.6
20260505165133 13 204 0.0 3.2 0.00 0.00 0.00 62 1008.6
20260505164632 13 330 0.0 1.6 0.00 0.00 0.00 62 1008.7
20260505164351 13 326 0.0 1.6 0.00 0.00 0.00 62 1008.8
20260505163633 13 303 0.0 1.6 0.00 0.00 0.00 62 1008.7
20260505163355 13 323 0.0 1.6 0.00 0.00 0.00 61 1008.6
20260505162848 13 311 0.0 1.6 0.00 0.00 0.00 62 1008.7
20260505162117 14 355 0.0 1.6 0.00 0.00 0.00 61 1008.7
20260505161607 14 288 0.0 3.2 0.00 0.00 0.00 62 1008.7
20260505161104 14 5 0.0 0.0 0.00 0.00 0.00 62 1008.7
20260505160603 14 233 0.0 3.2 0.00 0.00 0.00 62 1008.7
20260505153046 14 273 0.0 1.6 0.00 0.00 0.00 62 1008.8
20260505152547 14 307 0.0 1.6 0.00 0.00 0.00 62 1008.9
20260505152043 14 161 0.0 3.2 0.00 0.00 0.00 62 1009.0
20260505151544 14 307 0.0 3.2 0.00 0.00 0.00 62 1008.9
20260505151044 14 5 0.0 1.6 0.00 0.00 0.00 62 1008.9
20260505150543 14 229 0.0 1.6 0.00 0.00 0.00 62 1008.7
20260505140513 15 355 0.0 3.2 0.00 0.00 0.00 61 1009.1
20260505130304 14 296 0.0 6.4 0.00 0.00 0.00 61 1009.5
20260505124745 15 348 0.0 6.4 0.00 0.00 0.00 61 1009.6
20260505124450 15 273 0.0 3.2 0.00 0.00 0.00 62 1009.5
20260505123722 14 213 0.0 4.8 0.00 0.00 0.00 62 1009.5
20260505123224 15 304 0.0 4.8 0.00 0.00 0.00 61 1009.6
20260505122714 15 323 0.0 4.8 0.00 0.00 0.00 61 1009.6
20260505122203 14 284 0.0 4.8 0.00 0.00 0.00 62 1009.6
20260505121659 14 350 0.0 4.8 0.00 0.00 0.00 61 1009.6
20260505121159 14 0 0.0 4.8 0.00 0.00 0.00 61 1009.7
20260505120700 14 244 0.0 6.4 0.00 0.00 0.00 62 1009.8
20260505120151 14 326 0.0 8.0 0.00 0.00 0.00 62 1009.8
20260505115651 14 224 0.0 8.0 0.00 0.00 0.00 62 1009.9
20260505115152 14 132 0.0 4.8 0.00 0.00 0.00 62 1009.7
20260505114653 14 282 0.0 4.8 0.00 0.00 0.00 62 1009.8
20260505114148 14 319 0.0 1.6 0.00 0.00 0.00 62 1009.8
20260505113648 14 13 0.0 3.2 0.00 0.00 0.00 62 1009.9
20260505113147 14 146 0.0 17.7 0.00 0.00 0.00 62 1009.8
20260505112647 14 44 0.0 17.7 0.00 0.00 0.00 62 1009.8
20260505112144 14 263 0.0 8.0 0.00 0.00 0.00 61 1009.8
20260505111644 15 349 0.0 6.4 0.00 0.00 0.00 62 1009.8
20260505111137 14 300 0.0 1.6 0.00 0.00 0.00 62 1009.9
20260505110633 14 241 0.0 1.6 0.00 0.00 0.00 62 1010.0
20260505110112 14 332 0.0 1.6 0.00 0.00 0.00 62 1010.1